Moses Lake, WA

7:34 PM PDT on September 23, 2017 (GMT -0700)
Grant County International

Weather History for KMWH - November, 2013

Change the Weather History Date:

Saturday, November 30, 2013

  Actual Average Record
Temperature  
Mean Temperature 31 °F 32 °F  
Max Temperature 32 °F 39 °F 51 °F (1980)
Min Temperature 30 °F 26 °F -4 °F (1985)
Degree Days  
Heating Degree Days 34 33  
Month to date heating degree days 831 823  
Since 1 July heating degree days 1435 1461  
Cooling Degree Days 0 0  
Month to date cooling degree days 0 0  
Year to date cooling degree days 948 615  
Moisture  
Dew Point 29 °F    
Average Humidity 93    
Maximum Humidity 100    
Minimum Humidity 85    
Precipitation  
Precipitation 0.00 in 0.05 in 0.41 in (2010)
Month to date precipitation 0.60 1.20  
Year to date precipitation 5.86 7.67  
Sea Level Pressure  
Sea Level Pressure 30.30 in    
Wind  
Wind Speed 2 mph (SSE)    
Max Wind Speed 7 mph    
Max Gust Speed 9 mph    
Visibility 2 miles    
Events Fog    
T = Trace of Precipitation, MM = Missing Value Source: NWS Daily Summary

Daily Weather History Graph

Daily Weather History Graph

Search for Another Location

Airport or City:

Trip Planner

Search our weather history database for the weather conditions in past years. The results will help you decide how hot, cold, wet, or windy it might be!

Date:

Astronomy

Nov. 30, 2013 Rise Set
Actual Time 7:22 AM PST 4:09 PM PST
Civil Twilight 6:47 AM PST 4:44 PM PST
Nautical Twilight 6:09 AM PST 5:22 PM PST
Astronomical Twilight 5:32 AM PST 5:59 PM PST
Moon 4:30 AM PST (11/30) 2:44 PM PST (11/30)
Length of Visible Light 9h 56m
Length of Day
8h 47m
Waning Crescent, 6% of the Moon is Illuminated
Nov 30
Waning Crescent
Dec 2
New
Dec 9
First Quarter
Dec 17
Full
Dec 25
Last Quarter

Hourly Weather History & Observations

Time (PST) Temp. Windchill Dew Point Humidity Pressure Visibility Wind Dir Wind Speed Gust Speed Precip Events Conditions
12:52 AM 30.0 °F 24.1 °F 28.9 °F 96% 30.35 in 3.0 mi West 5.8 mph - N/A   Overcast
1:52 AM 30.9 °F - 30.0 °F 96% 30.35 in 3.0 mi Calm Calm - N/A   Overcast
2:52 AM 30.9 °F 27.5 °F 28.9 °F 92% 30.35 in 4.0 mi SW 3.5 mph - N/A   Overcast
3:52 AM 30.9 °F - 28.9 °F 92% 30.34 in 4.0 mi Calm Calm - N/A   Overcast
4:31 AM 30.2 °F 26.7 °F 28.4 °F 93% 30.29 in 2.5 mi SSE 3.5 mph - N/A   Overcast
4:52 AM 30.0 °F 26.5 °F 28.9 °F 96% 30.34 in 2.0 mi South 3.5 mph - N/A   Overcast
5:07 AM 30.2 °F 26.7 °F 28.4 °F 93% 30.29 in 1.8 mi SSE 3.5 mph - N/A   Overcast
5:52 AM 30.0 °F 26.5 °F 28.9 °F 96% 30.34 in 1.8 mi SSE 3.5 mph - N/A   Overcast
6:52 AM 30.0 °F 26.5 °F 28.0 °F 92% 30.35 in 1.5 mi South 3.5 mph - N/A   Overcast
7:19 AM 30.2 °F 25.4 °F 28.4 °F 93% 30.31 in 1.0 mi SSE 4.6 mph - N/A   Overcast
7:52 AM 30.0 °F - 28.9 °F 96% 30.36 in 1.0 mi Calm Calm - N/A   Overcast
7:59 AM 30.2 °F 26.7 °F 28.4 °F 93% 30.32 in 0.8 mi SSE 3.5 mph - N/A   Overcast
8:52 AM 30.0 °F 26.5 °F 28.9 °F 96% 30.37 in 1.0 mi ESE 3.5 mph - N/A   Overcast
9:28 AM 30.2 °F - 28.4 °F 93% 30.33 in 1.0 mi Calm Calm - N/A   Overcast
9:52 AM 30.9 °F 27.5 °F 28.9 °F 92% 30.37 in 0.8 mi South 3.5 mph - N/A   Overcast
10:52 AM 30.9 °F 26.2 °F 30.0 °F 96% 30.37 in 0.8 mi SSE 4.6 mph - N/A   Overcast
11:24 AM 30.2 °F 26.7 °F 28.4 °F 93% 30.33 in 0.8 mi SSE 3.5 mph - N/A   Overcast
11:52 AM 30.9 °F 26.2 °F 30.0 °F 96% 30.36 in 0.8 mi ESE 4.6 mph - N/A   Overcast
11:59 AM 30.2 °F 26.7 °F 28.4 °F 93% 30.32 in 1.0 mi SE 3.5 mph - N/A   Overcast
12:52 PM 32.0 °F 27.5 °F 30.0 °F 92% 30.34 in 1.5 mi SE 4.6 mph - N/A   Overcast
12:59 PM 32.0 °F - 30.2 °F 93% 30.30 in 3.0 mi Calm Calm - N/A   Overcast
1:52 PM 32.0 °F 28.7 °F 28.9 °F 88% 30.34 in 3.0 mi SE 3.5 mph - N/A   Overcast
2:52 PM 32.0 °F 27.5 °F 30.0 °F 92% 30.32 in 3.0 mi East 4.6 mph - N/A   Overcast
3:52 PM 32.0 °F - 28.9 °F 88% 30.33 in 3.0 mi Calm Calm - N/A   Overcast
4:52 PM 32.0 °F - 30.0 °F 92% 30.32 in 4.0 mi Calm Calm - N/A   Overcast
5:52 PM 32.0 °F - 30.0 °F 92% 30.30 in 3.0 mi Calm Calm - N/A   Overcast
6:52 PM 32.0 °F - 30.0 °F 92% 30.29 in 3.0 mi Calm Calm - N/A   Overcast
7:52 PM 32.0 °F - 30.0 °F 92% 30.27 in 3.0 mi Calm Calm - N/A   Overcast
8:52 PM 32.0 °F 28.7 °F 30.0 °F 92% 30.25 in 3.0 mi NNW 3.5 mph - N/A   Overcast
8:59 PM 32.0 °F 28.7 °F 30.2 °F 93% 30.21 in 2.5 mi NNW 3.5 mph - N/A   Overcast
9:25 PM 32.0 °F 28.7 °F 30.2 °F 93% 30.20 in 2.0 mi North 3.5 mph - N/A   Overcast
9:38 PM 32.0 °F 26.4 °F 30.2 °F 93% 30.20 in 1.2 mi North 5.8 mph - N/A   Overcast
9:50 PM 32.0 °F 28.7 °F 30.2 °F 93% 30.20 in 0.8 mi North 3.5 mph - N/A   Mist
9:52 PM 30.9 °F 27.5 °F 30.9 °F 100% 30.24 in 0.8 mi North 3.5 mph - N/A   Mist
10:52 PM 32.0 °F - 30.9 °F 96% 30.23 in 0.8 mi Calm Calm - N/A   Mist
11:29 PM 32.0 °F - 30.2 °F 93% 30.17 in 0.2 mi Calm Calm - N/A Fog Fog
11:52 PM 32.0 °F - 30.9 °F 96% 30.20 in 0.2 mi Calm Calm - N/A Fog Fog